• In Czech Republic
  • List of Countries
  • For 7 days
  • Water Temperature
  • Satellite Maps
  • Weather Map
  • Weather Widgets
  • user-avatar
    Login

    Hourly Weather Calgary

    Today, 22 October, Sunday

    Time Temperature Precipitation Wind Pressure Humidity
    00:00 +3°C° 0.1 mm 4 mps 656 mmHg 58%
    01:00 +3°C° 0.1 mm 4 mps 655 mmHg 60%
    02:00 +2°C° 0 mm 5 mps 654 mmHg 60%
    03:00 +3°C° 0 mm 5 mps 654 mmHg 59%
    04:00 +3°C° 0 mm 5 mps 654 mmHg 59%
    05:00 +3°C° 0 mm 5 mps 654 mmHg 59%
    06:00 +3°C° 0 mm 5 mps 654 mmHg 58%
    07:00 +5°C° 0 mm 5 mps 654 mmHg 57%
    08:00 +5°C° 0 mm 7 mps 655 mmHg 50%
    09:00 +6°C° 0 mm 9 mps 655 mmHg 42%
    10:00 +8°C° 0 mm 10 mps 656 mmHg 34%
    11:00 +8°C° 0 mm 11 mps 657 mmHg 32%
    12:00 +8°C° 0 mm 11 mps 658 mmHg 31%
    13:00 +8°C° 0 mm 11 mps 660 mmHg 29%
    14:00 +7°C° 0 mm 10 mps 660 mmHg 31%
    15:00 +6°C° 0 mm 8 mps 661 mmHg 33%
    16:00 +5°C° 0 mm 7 mps 662 mmHg 35%
    17:00 +4°C° 0 mm 6 mps 663 mmHg 38%
    18:00 +4°C° 0 mm 6 mps 664 mmHg 41%
    19:00 +3°C° 0 mm 5 mps 665 mmHg 45%
    20:00 +3°C° 0 mm 6 mps 666 mmHg 44%
    21:00 +3°C° 0 mm 7 mps 667 mmHg 42%
    22:00 +4°C° 0 mm 8 mps 668 mmHg 41%
    23:00 +4°C° 0 mm 8 mps 669 mmHg 42%

    Tomorrow, 23 October, Monday

    Time Temperature Precipitation Wind Pressure Humidity
    00:00 +2°C° 0 mm 8 mps 669 mmHg 42%
    01:00 +2°C° 0 mm 8 mps 670 mmHg 43%
    02:00 +3°C° 0 mm 7 mps 671 mmHg 44%
    03:00 +3°C° 0 mm 7 mps 672 mmHg 45%
    04:00 +2°C° 0 mm 6 mps 673 mmHg 46%
    05:00 +2°C° 0 mm 5 mps 673 mmHg 47%
    06:00 +1°C° 0 mm 5 mps 674 mmHg 48%
    07:00 +1°C° 0 mm 4 mps 675 mmHg 49%
    08:00 +4°C° 0 mm 4 mps 676 mmHg 44%
    09:00 +6°C° 0 mm 4 mps 677 mmHg 39%
    10:00 +8°C° 0 mm 4 mps 677 mmHg 33%
    11:00 +10°C° 0 mm 4 mps 677 mmHg 31%
    12:00 +10°C° 0 mm 3 mps 677 mmHg 30%
    13:00 +11°C° 0 mm 3 mps 678 mmHg 28%
    14:00 +10°C° 0 mm 3 mps 677 mmHg 33%
    15:00 +9°C° 0 mm 2 mps 677 mmHg 37%
    16:00 +8°C° 0 mm 2 mps 677 mmHg 42%
    17:00 +7°C° 0 mm 2 mps 677 mmHg 45%
    18:00 +7°C° 0 mm 2 mps 677 mmHg 48%
    19:00 +5°C° 0 mm 3 mps 677 mmHg 51%
    20:00 +5°C° 0 mm 3 mps 676 mmHg 52%
    21:00 +4°C° 0 mm 3 mps 676 mmHg 54%
    22:00 +4°C° 0 mm 3 mps 675 mmHg 55%
    23:00 +4°C° 0 mm 3 mps 675 mmHg 54%

    Day after tomorrow, 24 October, Tuesday

    Time Temperature Precipitation Wind Pressure Humidity
    00:00 +6°C° 0 mm 2 mps 675 mmHg 53%
    01:00 +6°C° 0 mm 2 mps 675 mmHg 52%
    02:00 +7°C° 0 mm 2 mps 675 mmHg 51%
    03:00 +7°C° 0 mm 3 mps 675 mmHg 49%
    04:00 +8°C° 0 mm 3 mps 675 mmHg 47%
    05:00 +8°C° 0 mm 3 mps 675 mmHg 48%
    06:00 +7°C° 0 mm 4 mps 675 mmHg 48%
    07:00 +7°C° 0 mm 4 mps 675 mmHg 48%
    08:00 +10°C° 0 mm 4 mps 675 mmHg 45%
    09:00 +10°C° 0 mm 5 mps 675 mmHg 43%
    10:00 +13°C° 0 mm 5 mps 674 mmHg 41%
    11:00 +14°C° 0 mm 4 mps 674 mmHg 39%
    12:00 +15°C° 0 mm 4 mps 674 mmHg 37%
    13:00 +17°C° 0 mm 3 mps 674 mmHg 35%
    14:00 +16°C° 0 mm 3 mps 674 mmHg 42%
    15:00 +14°C° 0 mm 3 mps 674 mmHg 48%
    16:00 +13°C° 0 mm 2 mps 674 mmHg 54%
    17:00 +10°C° 0 mm 2 mps 674 mmHg 58%
    18:00 +9°C° 0 mm 2 mps 673 mmHg 62%
    19:00 +7°C° 0 mm 2 mps 673 mmHg 66%
    20:00 +6°C° 0 mm 2 mps 673 mmHg 66%
    21:00 +6°C° 0 mm 2 mps 672 mmHg 67%
    22:00 +5°C° 0 mm 2 mps 672 mmHg 67%
    23:00 +5°C° 0 mm 2 mps 671 mmHg 67%

    25 October, Wednesday

    Time Temperature Precipitation Wind Pressure Humidity
    00:00 +4°C° 0 mm 3 mps 670 mmHg 67%
    01:00 +4°C° 0 mm 4 mps 669 mmHg 67%
    02:00 +4°C° 0 mm 4 mps 668 mmHg 68%
    03:00 +4°C° 0 mm 4 mps 666 mmHg 68%
    04:00 +5°C° 0 mm 3 mps 665 mmHg 69%
    05:00 +5°C° 0 mm 3 mps 664 mmHg 65%
    06:00 +7°C° 0 mm 3 mps 663 mmHg 62%
    07:00 +7°C° 0 mm 3 mps 662 mmHg 58%
    08:00 +8°C° 0 mm 4 mps 662 mmHg 52%
    09:00 +11°C° 0 mm 4 mps 662 mmHg 45%
    10:00 +13°C° 0 mm 4 mps 662 mmHg 39%
    11:00 +14°C° 0 mm 5 mps 661 mmHg 37%
    12:00 +16°C° 0 mm 6 mps 661 mmHg 35%
    13:00 +17°C° 0 mm 7 mps 661 mmHg 34%
    14:00 +15°C° 0.2 mm 7 mps 662 mmHg 41%
    15:00 +12°C° 0.2 mm 7 mps 662 mmHg 49%
    16:00 +9°C° 0.2 mm 7 mps 662 mmHg 56%
    17:00 +7°C° 0.1 mm 8 mps 663 mmHg 57%
    18:00 +5°C° 0.1 mm 9 mps 664 mmHg 58%
    19:00 +2°C° 0.1 mm 10 mps 666 mmHg 59%
    20:00 +1°C° 0 mm 10 mps 667 mmHg 61%
    21:00 +1°C° 0 mm 9 mps 668 mmHg 63%
    22:00 0°C° 0 mm 9 mps 669 mmHg 65%
    23:00 -1°C° 0 mm 7 mps 670 mmHg 67%

    26 October, Thursday

    Time Temperature Precipitation Wind Pressure Humidity
    00:00 -2°C° 0 mm 6 mps 671 mmHg 68%
    01:00 -1°C° 0 mm 5 mps 672 mmHg 70%
    02:00 -2°C° 0 mm 4 mps 672 mmHg 73%
    03:00 -1°C° 0 mm 3 mps 673 mmHg 76%
    04:00 -2°C° 0 mm 2 mps 674 mmHg 79%
    05:00 -2°C° 0 mm 2 mps 674 mmHg 80%
    06:00 0°C° 0 mm 1 mps 674 mmHg 81%
    07:00 -2°C° 0 mm 0 mps 675 mmHg 83%
    08:00 +1°C° 0 mm 1 mps 674 mmHg 75%
    09:00 +1°C° 0 mm 2 mps 674 mmHg 67%
    10:00 +3°C° 0 mm 2 mps 674 mmHg 59%
    11:00 +3°C° 0 mm 3 mps 674 mmHg 55%
    12:00 +4°C° 0 mm 3 mps 674 mmHg 52%
    13:00 +4°C° 0 mm 4 mps 673 mmHg 48%
    14:00 +4°C° 0 mm 4 mps 673 mmHg 50%
    15:00 +3°C° 0 mm 3 mps 673 mmHg 52%
    16:00 +3°C° 0 mm 3 mps 673 mmHg 54%
    17:00 +2°C° 0 mm 3 mps 673 mmHg 56%
    18:00 +1°C° 0 mm 3 mps 673 mmHg 59%
    19:00 +1°C° 0 mm 3 mps 673 mmHg 62%
    20:00 0°C° 0 mm 3 mps 673 mmHg 64%
    21:00 +1°C° 0 mm 2 mps 673 mmHg 66%
    22:00 +1°C° 0 mm 2 mps 673 mmHg 68%
    23:00 +1°C° 0 mm 2 mps 673 mmHg 68%

    27 October, Friday

    Time Temperature Precipitation Wind Pressure Humidity
    00:00 +1°C° 0 mm 2 mps 673 mmHg 69%
    01:00 +1°C° 0 mm 2 mps 673 mmHg 70%
    02:00 +1°C° 0 mm 2 mps 673 mmHg 70%
    03:00 +1°C° 0 mm 2 mps 672 mmHg 71%
    04:00 +1°C° 0 mm 2 mps 672 mmHg 71%
    05:00 +1°C° 0 mm 2 mps 672 mmHg 71%
    06:00 +1°C° 0 mm 2 mps 672 mmHg 70%
    07:00 +2°C° 0 mm 2 mps 672 mmHg 70%
    08:00 +4°C° 0 mm 2 mps 672 mmHg 62%
    09:00 +6°C° 0 mm 2 mps 672 mmHg 54%
    10:00 +9°C° 0 mm 2 mps 672 mmHg 46%
    11:00 +10°C° 0 mm 2 mps 672 mmHg 44%
    12:00 +12°C° 0 mm 2 mps 672 mmHg 41%
    13:00 +13°C° 0 mm 1 mps 671 mmHg 39%
    14:00 +12°C° 0 mm 2 mps 671 mmHg 43%
    15:00 +10°C° 0 mm 2 mps 671 mmHg 47%
    16:00 +9°C° 0 mm 2 mps 670 mmHg 51%
    17:00 +9°C° 0 mm 2 mps 670 mmHg 53%
    18:00 +8°C° 0 mm 2 mps 670 mmHg 55%
    19:00 +7°C° 0 mm 2 mps 670 mmHg 57%
    20:00 +7°C° 0 mm 2 mps 669 mmHg 58%
    21:00 +7°C° 0 mm 2 mps 669 mmHg 59%
    22:00 +5°C° 0 mm 3 mps 669 mmHg 60%
    23:00 +5°C° 0 mm 3 mps 669 mmHg 59%
    Show more